Weather in Umiujaq

Canada     56°33′04″N   76°32′40″W
temp.,
°C
wind,
m/s
gust,
m/s
humid.,
%
clouds,
%
prec.,
mm/h
press.,
hPa
HPBL,
m
27 february, sat
sat2701:00−22nnw6997100 0.9 1000244
04:00−24nnw5787100 0.2 1003272
07:00−27nnw4589100 0.2 1007209
10:00−29nw4591100 0.0 1010242
13:00−30wnw458867 0.0 1013353
16:00−30w359271 0.0 1017381
19:00−32wsw339984 0.0 102021
22:00−33sw33100100 0.0 102330
28 february, sun
sun2801:00−33ssw3399100 0.0 102346
04:00−33ssw4599100 0.0 102684
07:00−31ssw4796100 0.0 1024354
10:00−29s4691100 0.0 1024354
13:00−26sse3483100 0.0 1022388
16:00−24e2381100 0.0 1019250
19:00−24ene3485100 0.0 101544
22:00−22ene4785100 0.0 1011169
1 march, mon
mon101:00−21ne5984100 0.0 1006243
04:00−20ne51485100 0.0 1001345
07:00−20nne61296100 0.4 999414
10:00−20nne81394100 0.9 998526
13:00−20n91394100 1.4 997612
16:00−21nnw91494100 0.4 1000631
19:00−24nnw71390100 0.6 1004548
22:00−29nw61099100 0.0 1007368
2 march, tue
tue201:00−32nw4699100 0.0 1009167
04:00−33wnw33100100 0.0 101150
07:00−33w23100100 0.0 101327
10:00−30wsw3496100 0.0 1013366
13:00−28sw3493100 0.1 1013477
16:00−27ssw2391100 0.0 1012432
19:00−28ese2394100 0.0 101296
22:00−29ene339089 0.0 101042
3 march, wed
wed301:00−26ene449495 0.0 1009114
04:00−25ene4595100 0.2 1008151
07:00−25ene4595100 0.3 1009180
10:00−24ene4692100 0.1 1010265
13:00−23ne458783 0.1 1012328
16:00−25nne458244 0.0 1014211
19:00−28nne348472 0.0 101848
22:00−32ne338218 0.0 102019